Location: Strawberry
(45.6646°N, 111.9596°W)
Time: 22:11:04
(UTC+00:00)

SR - Pass Details

Date: 06 October 2022
Orbit: 571 x 872 km, 66.7° (Epoch: 07 December)

Event Time Altitude Azimuth Distance (km) Brightness Sun altitude
Rises 02:28:26 0° 175° (S) 3,426 ? -16.2°
Reaches altitude 10° 02:31:14 10° 164° (SSE) 2,514 ? -16.7°
Enters shadow 02:35:13 26° 122° (ESE) 1,664 ? -17.4°
